Year,Month,Day,Hour,Minute,Value (Times are PST for temperature in C)
2010,08,25,00,00,16.20
2010,08,25,00,01,16.20
2010,08,25,00,02,16.10
2010,08,25,00,03,16.10
2010,08,25,00,04,16.10
2010,08,25,00,05,16.10
2010,08,25,00,06,16.10
2010,08,25,00,07,16.10
2010,08,25,00,08,16.10
2010,08,25,00,09,16.10
2010,08,25,00,10,16.10
2010,08,25,00,11,16.10
2010,08,25,00,12,16.00
2010,08,25,00,13,16.00
2010,08,25,00,14,16.00
2010,08,25,00,15,16.00
2010,08,25,00,16,16.00
2010,08,25,00,17,16.00
2010,08,25,00,18,16.00
2010,08,25,00,19,16.00
2010,08,25,00,20,15.90
2010,08,25,00,21,15.90
2010,08,25,00,22,15.90
2010,08,25,00,23,15.90
2010,08,25,00,24,15.90
2010,08,25,00,25,15.80
2010,08,25,00,26,15.80
2010,08,25,00,27,15.80
2010,08,25,00,28,15.80
2010,08,25,00,29,15.80
2010,08,25,00,30,15.80
2010,08,25,00,31,15.80
2010,08,25,00,32,15.80
2010,08,25,00,33,15.80
2010,08,25,00,34,15.80
2010,08,25,00,35,15.80
2010,08,25,00,36,15.80
2010,08,25,00,37,15.80
2010,08,25,00,38,15.80
2010,08,25,00,39,15.80
2010,08,25,00,40,15.80
2010,08,25,00,41,15.80
2010,08,25,00,42,15.70
2010,08,25,00,43,15.70
2010,08,25,00,44,15.70
2010,08,25,00,45,15.70
2010,08,25,00,46,15.70
2010,08,25,00,47,15.70
2010,08,25,00,48,15.70
2010,08,25,00,49,15.70
2010,08,25,00,50,15.70
2010,08,25,00,51,15.70
2010,08,25,00,52,15.70
2010,08,25,00,53,15.60
2010,08,25,00,54,15.60
2010,08,25,00,55,15.60
2010,08,25,00,56,15.60
2010,08,25,00,57,15.60
2010,08,25,00,58,15.60
2010,08,25,00,59,15.60
2010,08,25,01,00,15.60
2010,08,25,01,01,15.60
2010,08,25,01,02,15.50
2010,08,25,01,03,15.50
2010,08,25,01,04,15.50
2010,08,25,01,05,15.50
2010,08,25,01,06,15.50
2010,08,25,01,07,15.50
2010,08,25,01,08,15.50
2010,08,25,01,09,15.50
2010,08,25,01,10,15.50
2010,08,25,01,11,15.50
2010,08,25,01,12,15.50
2010,08,25,01,13,15.50
2010,08,25,01,14,15.50
2010,08,25,01,15,15.40
2010,08,25,01,16,15.40
2010,08,25,01,17,15.40
2010,08,25,01,18,15.40
2010,08,25,01,19,15.40
2010,08,25,01,20,15.40
2010,08,25,01,21,15.40
2010,08,25,01,22,15.40
2010,08,25,01,23,15.40
2010,08,25,01,24,15.30
2010,08,25,01,25,15.30
2010,08,25,01,26,15.30
2010,08,25,01,27,15.30
2010,08,25,01,28,15.30
2010,08,25,01,29,15.30
2010,08,25,01,30,15.30
2010,08,25,01,31,15.30
2010,08,25,01,32,15.30
2010,08,25,01,33,15.20
2010,08,25,01,34,15.20
2010,08,25,01,35,15.20
2010,08,25,01,36,15.20
2010,08,25,01,37,15.20
2010,08,25,01,38,15.20
2010,08,25,01,39,15.20
2010,08,25,01,40,15.20
2010,08,25,01,41,15.20
2010,08,25,01,42,15.20
2010,08,25,01,43,15.10
2010,08,25,01,44,15.10
2010,08,25,01,45,15.10
2010,08,25,01,46,15.10
2010,08,25,01,47,15.10
2010,08,25,01,48,15.10
2010,08,25,01,49,15.00
2010,08,25,01,50,15.00
2010,08,25,01,51,15.00
2010,08,25,01,52,15.00
2010,08,25,01,53,14.90
2010,08,25,01,54,14.90
2010,08,25,01,55,14.90
2010,08,25,01,56,14.90
2010,08,25,01,57,14.90
2010,08,25,01,58,14.90
2010,08,25,01,59,14.90
2010,08,25,02,00,14.90
2010,08,25,02,01,14.90
2010,08,25,02,02,14.90
2010,08,25,02,03,14.90
2010,08,25,02,04,14.90
2010,08,25,02,05,14.90
2010,08,25,02,06,14.90
2010,08,25,02,07,14.90
2010,08,25,02,08,14.80
2010,08,25,02,09,14.80
2010,08,25,02,10,14.80
2010,08,25,02,11,14.80
2010,08,25,02,12,14.80
2010,08,25,02,13,14.80
2010,08,25,02,14,14.80
2010,08,25,02,15,14.80
2010,08,25,02,16,14.80
2010,08,25,02,17,14.70
2010,08,25,02,18,14.70
2010,08,25,02,19,14.70
2010,08,25,02,20,14.70
2010,08,25,02,21,14.70
2010,08,25,02,22,14.70
2010,08,25,02,23,14.70
2010,08,25,02,24,14.70
2010,08,25,02,25,14.70
2010,08,25,02,26,14.70
2010,08,25,02,27,14.60
2010,08,25,02,28,14.60
2010,08,25,02,29,14.60
2010,08,25,02,30,14.60
2010,08,25,02,31,14.60
2010,08,25,02,32,14.60
2010,08,25,02,33,14.50
2010,08,25,02,34,14.50
2010,08,25,02,35,14.50
2010,08,25,02,36,14.50
2010,08,25,02,37,14.40
2010,08,25,02,38,14.40
2010,08,25,02,39,14.40
2010,08,25,02,40,14.40
2010,08,25,02,41,14.40
2010,08,25,02,42,14.40
2010,08,25,02,43,14.40
2010,08,25,02,44,14.40
2010,08,25,02,45,14.40
2010,08,25,02,46,14.40
2010,08,25,02,47,14.40
2010,08,25,02,48,14.40
2010,08,25,02,49,14.40
2010,08,25,02,50,14.40
2010,08,25,02,51,14.40
2010,08,25,02,52,14.40
2010,08,25,02,53,14.30
2010,08,25,02,54,14.30
2010,08,25,02,55,14.30
2010,08,25,02,56,14.30
2010,08,25,02,57,14.30
2010,08,25,02,58,14.30
2010,08,25,02,59,14.30
2010,08,25,03,00,14.30
2010,08,25,03,01,14.30
2010,08,25,03,02,14.30
2010,08,25,03,03,14.30
2010,08,25,03,04,14.20
2010,08,25,03,05,14.20
2010,08,25,03,06,14.20
2010,08,25,03,07,14.20
2010,08,25,03,08,14.20
2010,08,25,03,09,14.20
2010,08,25,03,10,14.20
2010,08,25,03,11,14.20
2010,08,25,03,12,14.20
2010,08,25,03,13,14.10
2010,08,25,03,14,14.10
2010,08,25,03,15,14.10
2010,08,25,03,16,14.10
2010,08,25,03,17,14.10
2010,08,25,03,18,14.10
2010,08,25,03,19,14.10
2010,08,25,03,20,14.10
2010,08,25,03,21,14.10
2010,08,25,03,22,14.10
2010,08,25,03,23,14.10
2010,08,25,03,24,14.10
2010,08,25,03,25,14.10
2010,08,25,03,26,14.10
2010,08,25,03,27,14.00
2010,08,25,03,28,14.00
2010,08,25,03,29,14.00
2010,08,25,03,30,14.00
2010,08,25,03,31,14.00
2010,08,25,03,32,14.00
2010,08,25,03,33,14.00
2010,08,25,03,34,14.00
2010,08,25,03,35,14.00
2010,08,25,03,36,14.00
2010,08,25,03,37,13.90
2010,08,25,03,38,13.90
2010,08,25,03,39,13.90
2010,08,25,03,40,13.90
2010,08,25,03,41,13.90
2010,08,25,03,42,13.90
2010,08,25,03,43,13.90
2010,08,25,03,44,13.90
2010,08,25,03,45,13.90
2010,08,25,03,46,13.90
2010,08,25,03,47,13.80
2010,08,25,03,48,13.80
2010,08,25,03,49,13.80
2010,08,25,03,50,13.80
2010,08,25,03,51,13.80
2010,08,25,03,52,13.80
2010,08,25,03,53,13.70
2010,08,25,03,54,13.70
2010,08,25,03,55,13.70
2010,08,25,03,56,13.70
2010,08,25,03,57,13.70
2010,08,25,03,58,13.70
2010,08,25,03,59,13.60
2010,08,25,04,00,13.60
2010,08,25,04,01,13.60
2010,08,25,04,02,13.60
2010,08,25,04,03,13.60
2010,08,25,04,04,13.60
2010,08,25,04,05,13.60
2010,08,25,04,06,13.60
2010,08,25,04,07,13.60
2010,08,25,04,08,13.60
2010,08,25,04,09,13.60
2010,08,25,04,10,13.60
2010,08,25,04,11,13.60
2010,08,25,04,12,13.60
2010,08,25,04,13,13.60
2010,08,25,04,14,13.50
2010,08,25,04,15,13.50
2010,08,25,04,16,13.50
2010,08,25,04,17,13.50
2010,08,25,04,18,13.50
2010,08,25,04,19,13.40
2010,08,25,04,20,13.40
2010,08,25,04,21,13.40
2010,08,25,04,22,13.40
2010,08,25,04,23,13.40
2010,08,25,04,24,13.40
2010,08,25,04,25,13.40
2010,08,25,04,26,13.40
2010,08,25,04,27,13.40
2010,08,25,04,28,13.40
2010,08,25,04,29,13.40
2010,08,25,04,30,13.40
2010,08,25,04,31,13.40
2010,08,25,04,32,13.40
2010,08,25,04,33,13.40
2010,08,25,04,34,13.40
2010,08,25,04,35,13.30
2010,08,25,04,36,13.30
2010,08,25,04,37,13.30
2010,08,25,04,38,13.30
2010,08,25,04,39,13.30
2010,08,25,04,40,13.30
2010,08,25,04,41,13.20
2010,08,25,04,42,13.20
2010,08,25,04,43,13.20
2010,08,25,04,44,13.20
2010,08,25,04,45,13.20
2010,08,25,04,46,13.10
2010,08,25,04,47,13.10
2010,08,25,04,48,13.10
2010,08,25,04,49,13.10
2010,08,25,04,50,13.10
2010,08,25,04,51,13.00
2010,08,25,04,52,13.00
2010,08,25,04,53,13.00
2010,08,25,04,54,13.00
2010,08,25,04,55,13.00
2010,08,25,04,56,13.00
2010,08,25,04,57,13.00
2010,08,25,04,58,13.00
2010,08,25,04,59,13.00
2010,08,25,05,00,13.00
2010,08,25,05,01,13.00
2010,08,25,05,02,13.00
2010,08,25,05,03,13.00
2010,08,25,05,04,13.00
2010,08,25,05,05,12.90
2010,08,25,05,06,12.90
2010,08,25,05,07,12.90
2010,08,25,05,08,12.90
2010,08,25,05,09,12.90
2010,08,25,05,10,12.90
2010,08,25,05,11,12.90
2010,08,25,05,12,12.90
2010,08,25,05,13,12.90
2010,08,25,05,14,12.90
2010,08,25,05,15,12.90
2010,08,25,05,16,12.90
2010,08,25,05,17,12.90
2010,08,25,05,18,12.90
2010,08,25,05,19,12.80
2010,08,25,05,20,12.80
2010,08,25,05,21,12.80
2010,08,25,05,22,12.80
2010,08,25,05,23,12.80
2010,08,25,05,24,12.80
2010,08,25,05,25,12.80
2010,08,25,05,26,12.80
2010,08,25,05,27,12.80
2010,08,25,05,28,12.80
2010,08,25,05,29,12.80
2010,08,25,05,30,12.80
2010,08,25,05,31,12.80
2010,08,25,05,32,12.80
2010,08,25,05,33,12.80
2010,08,25,05,34,12.80
2010,08,25,05,35,12.80
2010,08,25,05,36,12.80
2010,08,25,05,37,12.80
2010,08,25,05,38,12.70
2010,08,25,05,39,12.70
2010,08,25,05,40,12.70
2010,08,25,05,41,12.70
2010,08,25,05,42,12.70
2010,08,25,05,43,12.70
2010,08,25,05,44,12.70
2010,08,25,05,45,12.70
2010,08,25,05,46,12.70
2010,08,25,05,47,12.70
2010,08,25,05,48,12.70
2010,08,25,05,49,12.70
2010,08,25,05,50,12.70
2010,08,25,05,51,12.70
2010,08,25,05,52,12.70
2010,08,25,05,53,12.70
2010,08,25,05,54,12.70
2010,08,25,05,55,12.70
2010,08,25,05,56,12.70
2010,08,25,05,57,12.70
2010,08,25,05,58,12.70
2010,08,25,05,59,12.70
2010,08,25,06,00,12.70
2010,08,25,06,01,12.60
2010,08,25,06,02,12.60
2010,08,25,06,03,12.60
2010,08,25,06,04,12.60
2010,08,25,06,05,12.60
2010,08,25,06,06,12.60
2010,08,25,06,07,12.60
2010,08,25,06,08,12.50
2010,08,25,06,09,12.50
2010,08,25,06,10,12.50
2010,08,25,06,11,12.40
2010,08,25,06,12,12.40
2010,08,25,06,13,12.40
2010,08,25,06,14,12.40
2010,08,25,06,15,12.40
2010,08,25,06,16,12.40
2010,08,25,06,17,12.40
2010,08,25,06,18,12.40
2010,08,25,06,19,12.40
2010,08,25,06,20,12.40
2010,08,25,06,21,12.40
2010,08,25,06,22,12.40
2010,08,25,06,23,12.40
2010,08,25,06,24,12.40
2010,08,25,06,25,12.40
2010,08,25,06,26,12.30
2010,08,25,06,27,12.30
2010,08,25,06,28,12.30
2010,08,25,06,29,12.30
2010,08,25,06,30,12.30
2010,08,25,06,31,12.30
2010,08,25,06,32,12.30
2010,08,25,06,33,12.30
2010,08,25,06,34,12.30
2010,08,25,06,35,12.30
2010,08,25,06,36,12.30
2010,08,25,06,37,12.30
2010,08,25,06,38,12.30
2010,08,25,06,39,12.30
2010,08,25,06,40,12.30
2010,08,25,06,41,12.30
2010,08,25,06,42,12.30
2010,08,25,06,43,12.30
2010,08,25,06,44,12.30
2010,08,25,06,45,12.40
2010,08,25,06,46,12.40
2010,08,25,06,47,12.40
2010,08,25,06,48,12.40
2010,08,25,06,49,12.40
2010,08,25,06,50,12.50
2010,08,25,06,51,12.50
2010,08,25,06,52,12.60
2010,08,25,06,53,12.60
2010,08,25,06,54,12.60
2010,08,25,06,55,12.70
2010,08,25,06,56,12.70
2010,08,25,06,57,12.70
2010,08,25,06,58,12.70
2010,08,25,06,59,12.80
2010,08,25,07,00,12.80
2010,08,25,07,01,12.80
2010,08,25,07,02,12.90
2010,08,25,07,03,12.90
2010,08,25,07,04,13.00
2010,08,25,07,05,13.00
2010,08,25,07,06,13.10
2010,08,25,07,07,13.10
2010,08,25,07,08,13.20
2010,08,25,07,09,13.20
2010,08,25,07,10,13.30
2010,08,25,07,11,13.50
2010,08,25,07,12,13.60
2010,08,25,07,13,13.70
2010,08,25,07,14,13.80
2010,08,25,07,15,13.90
2010,08,25,07,16,14.10
2010,08,25,07,17,14.20
2010,08,25,07,18,14.30
2010,08,25,07,19,14.40
2010,08,25,07,20,14.50
2010,08,25,07,21,14.70
2010,08,25,07,22,14.80
2010,08,25,07,23,14.90
2010,08,25,07,24,15.00
2010,08,25,07,25,15.20
2010,08,25,07,26,15.30
2010,08,25,07,27,15.40
2010,08,25,07,28,15.60
2010,08,25,07,29,15.70
2010,08,25,07,30,15.80
2010,08,25,07,31,15.90
2010,08,25,07,32,16.00
2010,08,25,07,33,16.20
2010,08,25,07,34,16.40
2010,08,25,07,35,16.50
2010,08,25,07,36,16.60
2010,08,25,07,37,16.70
2010,08,25,07,38,16.80
2010,08,25,07,39,16.80
2010,08,25,07,40,16.80
2010,08,25,07,41,16.80
2010,08,25,07,42,16.80
2010,08,25,07,43,16.80
2010,08,25,07,44,16.80
2010,08,25,07,45,16.90
2010,08,25,07,46,16.90
2010,08,25,07,47,17.00
2010,08,25,07,48,17.00
2010,08,25,07,49,17.10
2010,08,25,07,50,17.20
2010,08,25,07,51,17.20
2010,08,25,07,52,17.30
2010,08,25,07,53,17.40
2010,08,25,07,54,17.50
2010,08,25,07,55,17.60
2010,08,25,07,56,17.70
2010,08,25,07,57,17.80
2010,08,25,07,58,18.00
2010,08,25,07,59,18.00
2010,08,25,08,00,18.10
2010,08,25,08,01,18.20
2010,08,25,08,02,18.30
2010,08,25,08,03,18.40
2010,08,25,08,04,18.50
2010,08,25,08,05,18.60
2010,08,25,08,06,18.70
2010,08,25,08,07,18.90
2010,08,25,08,08,19.00
2010,08,25,08,09,19.10
2010,08,25,08,10,19.20
2010,08,25,08,11,19.20
2010,08,25,08,12,19.30
2010,08,25,08,13,19.40
2010,08,25,08,14,19.50
2010,08,25,08,15,19.50
2010,08,25,08,16,19.60
2010,08,25,08,17,19.70
2010,08,25,08,18,19.80
2010,08,25,08,19,19.90
2010,08,25,08,20,20.00
2010,08,25,08,21,20.10
2010,08,25,08,22,20.20
2010,08,25,08,23,20.30
2010,08,25,08,24,20.50
2010,08,25,08,25,20.60
2010,08,25,08,26,20.70
2010,08,25,08,27,20.70
2010,08,25,08,28,20.80
2010,08,25,08,29,20.80
2010,08,25,08,30,20.90
2010,08,25,08,31,20.90
2010,08,25,08,32,20.90
2010,08,25,08,33,20.90
2010,08,25,08,34,20.90
2010,08,25,08,35,20.90
2010,08,25,08,36,20.90
2010,08,25,08,37,20.90
2010,08,25,08,38,20.90
2010,08,25,08,39,21.00
2010,08,25,08,40,21.00
2010,08,25,08,41,21.00
2010,08,25,08,42,21.00
2010,08,25,08,43,21.10
2010,08,25,08,44,21.10
2010,08,25,08,45,21.20
2010,08,25,08,46,21.30
2010,08,25,08,47,21.30
2010,08,25,08,48,21.30
2010,08,25,08,49,21.30
2010,08,25,08,50,21.30
2010,08,25,08,51,21.30
2010,08,25,08,52,21.30
2010,08,25,08,53,21.40
2010,08,25,08,54,21.40
2010,08,25,08,55,21.40
2010,08,25,08,56,21.50
2010,08,25,08,57,21.50
2010,08,25,08,58,21.60
2010,08,25,08,59,21.70
2010,08,25,09,00,21.70
2010,08,25,09,01,21.80
2010,08,25,09,02,21.80
2010,08,25,09,03,21.90
2010,08,25,09,04,22.00
2010,08,25,09,05,22.00
2010,08,25,09,06,22.10
2010,08,25,09,07,22.10
2010,08,25,09,08,22.10
2010,08,25,09,09,22.10
2010,08,25,09,10,22.00
2010,08,25,09,11,22.00
2010,08,25,09,12,22.00
2010,08,25,09,13,22.00
2010,08,25,09,14,22.00
2010,08,25,09,15,22.10
2010,08,25,09,16,22.10
2010,08,25,09,17,22.10
2010,08,25,09,18,22.10
2010,08,25,09,19,22.00
2010,08,25,09,20,22.00
2010,08,25,09,21,21.90
2010,08,25,09,22,21.90
2010,08,25,09,23,21.90
2010,08,25,09,24,21.90
2010,08,25,09,25,21.90
2010,08,25,09,26,21.90
2010,08,25,09,27,21.90
2010,08,25,09,28,21.90
2010,08,25,09,29,22.00
2010,08,25,09,30,22.00
2010,08,25,09,31,22.10
2010,08,25,09,32,22.10
2010,08,25,09,33,22.10
2010,08,25,09,34,22.10
2010,08,25,09,35,22.10
2010,08,25,09,36,22.20
2010,08,25,09,37,22.20
2010,08,25,09,38,22.20
2010,08,25,09,39,22.20
2010,08,25,09,40,22.30
2010,08,25,09,41,22.20
2010,08,25,09,42,22.20
2010,08,25,09,43,22.20
2010,08,25,09,44,22.20
2010,08,25,09,45,22.30
2010,08,25,09,46,22.40
2010,08,25,09,47,22.50
2010,08,25,09,48,22.60
2010,08,25,09,49,22.70
2010,08,25,09,50,22.70
2010,08,25,09,51,22.80
2010,08,25,09,52,22.90
2010,08,25,09,53,22.90
2010,08,25,09,54,23.00
2010,08,25,09,55,23.10
2010,08,25,09,56,23.10
2010,08,25,09,57,23.10
2010,08,25,09,58,23.10
2010,08,25,09,59,23.10
2010,08,25,10,00,23.00
2010,08,25,10,01,22.90
2010,08,25,10,02,22.90
2010,08,25,10,03,22.80
2010,08,25,10,04,22.80
2010,08,25,10,05,22.80
2010,08,25,10,06,22.80
2010,08,25,10,07,22.80
2010,08,25,10,08,22.80
2010,08,25,10,09,22.80
2010,08,25,10,10,22.80
2010,08,25,10,11,22.90
2010,08,25,10,12,23.00
2010,08,25,10,13,23.10
2010,08,25,10,14,23.20
2010,08,25,10,15,23.20
2010,08,25,10,16,23.30
2010,08,25,10,17,23.30
2010,08,25,10,18,23.30
2010,08,25,10,19,23.30
2010,08,25,10,20,23.20
2010,08,25,10,21,23.20
2010,08,25,10,22,23.10
2010,08,25,10,23,23.00
2010,08,25,10,24,22.90
2010,08,25,10,25,22.90
2010,08,25,10,26,22.90
2010,08,25,10,27,22.80
2010,08,25,10,28,22.80
2010,08,25,10,29,22.80
2010,08,25,10,30,22.80
2010,08,25,10,31,22.80
2010,08,25,10,32,22.70
2010,08,25,10,33,22.60
2010,08,25,10,34,22.40
2010,08,25,10,35,22.30
2010,08,25,10,36,22.30
2010,08,25,10,37,22.40
2010,08,25,10,38,22.50
2010,08,25,10,39,22.60
2010,08,25,10,40,22.70
2010,08,25,10,41,22.80
2010,08,25,10,42,22.80
2010,08,25,10,43,22.80
2010,08,25,10,44,22.90
2010,08,25,10,45,23.00
2010,08,25,10,46,23.00
2010,08,25,10,47,23.10
2010,08,25,10,48,23.00
2010,08,25,10,49,23.00
2010,08,25,10,50,23.00
2010,08,25,10,51,22.90
2010,08,25,10,52,22.90
2010,08,25,10,53,22.90
2010,08,25,10,54,22.80
2010,08,25,10,55,22.80
2010,08,25,10,56,22.80
2010,08,25,10,57,22.80
2010,08,25,10,58,22.70
2010,08,25,10,59,22.70
2010,08,25,11,00,22.60
2010,08,25,11,01,22.60
2010,08,25,11,02,22.50
2010,08,25,11,03,22.50
2010,08,25,11,04,22.50
2010,08,25,11,05,22.60
2010,08,25,11,06,22.60
2010,08,25,11,07,22.70
2010,08,25,11,08,22.70
2010,08,25,11,09,22.70
2010,08,25,11,10,22.80
2010,08,25,11,11,22.90
2010,08,25,11,12,23.00
2010,08,25,11,13,23.00
2010,08,25,11,14,22.90
2010,08,25,11,15,22.90
2010,08,25,11,16,22.90
2010,08,25,11,17,22.90
2010,08,25,11,18,22.90
2010,08,25,11,19,22.90
2010,08,25,11,20,22.90
2010,08,25,11,21,23.00
2010,08,25,11,22,23.00
2010,08,25,11,23,23.10
2010,08,25,11,24,23.00
2010,08,25,11,25,23.00
2010,08,25,11,26,22.90
2010,08,25,11,27,22.80
2010,08,25,11,28,22.70
2010,08,25,11,29,22.70
2010,08,25,11,30,22.80
2010,08,25,11,31,22.90
2010,08,25,11,32,23.10
2010,08,25,11,33,23.20
2010,08,25,11,34,23.20
2010,08,25,11,35,23.30
2010,08,25,11,36,23.30
2010,08,25,11,37,23.20
2010,08,25,11,38,23.20
2010,08,25,11,39,23.30
2010,08,25,11,40,23.30
2010,08,25,11,41,23.30
2010,08,25,11,42,23.30
2010,08,25,11,43,23.20
2010,08,25,11,44,23.20
2010,08,25,11,45,23.20
2010,08,25,11,46,23.20
2010,08,25,11,47,23.30
2010,08,25,11,48,23.30
2010,08,25,11,49,23.40
2010,08,25,11,50,23.50
2010,08,25,11,51,23.60
2010,08,25,11,52,23.60
2010,08,25,11,53,23.60
2010,08,25,11,54,23.60
2010,08,25,11,55,23.60
2010,08,25,11,56,23.60
2010,08,25,11,57,23.60
2010,08,25,11,58,23.60
2010,08,25,11,59,23.70
2010,08,25,12,00,23.70
2010,08,25,12,01,23.80
2010,08,25,12,02,23.70
2010,08,25,12,03,23.60
2010,08,25,12,04,23.60
2010,08,25,12,05,23.60
2010,08,25,12,06,23.60
2010,08,25,12,07,23.60
2010,08,25,12,08,23.60
2010,08,25,12,09,23.60
2010,08,25,12,10,23.50
2010,08,25,12,11,23.50
2010,08,25,12,12,23.50
2010,08,25,12,13,23.50
2010,08,25,12,14,23.60
2010,08,25,12,15,23.60
2010,08,25,12,16,23.80
2010,08,25,12,17,23.80
2010,08,25,12,18,23.70
2010,08,25,12,19,23.60
2010,08,25,12,20,23.60
2010,08,25,12,21,23.50
2010,08,25,12,22,23.40
2010,08,25,12,23,23.40
2010,08,25,12,24,23.40
2010,08,25,12,25,23.40
2010,08,25,12,26,23.40
2010,08,25,12,27,23.50
2010,08,25,12,28,23.50
2010,08,25,12,29,23.50
2010,08,25,12,30,23.60
2010,08,25,12,31,23.60
2010,08,25,12,32,23.60
2010,08,25,12,33,23.60
2010,08,25,12,34,23.60
2010,08,25,12,35,23.60
2010,08,25,12,36,23.60
2010,08,25,12,37,23.60
2010,08,25,12,38,23.50
2010,08,25,12,39,23.50
2010,08,25,12,40,23.60
2010,08,25,12,41,23.60
2010,08,25,12,42,23.70
2010,08,25,12,43,23.60
2010,08,25,12,44,23.60
2010,08,25,12,45,23.60
2010,08,25,12,46,23.60
2010,08,25,12,47,23.70
2010,08,25,12,48,23.60
2010,08,25,12,49,23.50
2010,08,25,12,50,23.50
2010,08,25,12,51,23.40
2010,08,25,12,52,23.40
2010,08,25,12,53,23.40
2010,08,25,12,54,23.40
2010,08,25,12,55,23.40
2010,08,25,12,56,23.40
2010,08,25,12,57,23.40
2010,08,25,12,58,23.40
2010,08,25,12,59,23.30
2010,08,25,13,00,23.30
2010,08,25,13,01,23.20
2010,08,25,13,02,23.20
2010,08,25,13,03,23.20
2010,08,25,13,04,23.30
2010,08,25,13,05,23.30
2010,08,25,13,06,23.30
2010,08,25,13,07,23.40
2010,08,25,13,08,23.60
2010,08,25,13,09,23.70
2010,08,25,13,10,23.80
2010,08,25,13,11,24.00
2010,08,25,13,12,24.10
2010,08,25,13,13,24.20
2010,08,25,13,14,24.20
2010,08,25,13,15,24.30
2010,08,25,13,16,24.40
2010,08,25,13,17,24.50
2010,08,25,13,18,24.60
2010,08,25,13,19,24.60
2010,08,25,13,20,24.70
2010,08,25,13,21,24.70
2010,08,25,13,22,24.70
2010,08,25,13,23,24.70
2010,08,25,13,24,24.50
2010,08,25,13,25,24.40
2010,08,25,13,26,24.30
2010,08,25,13,27,24.20
2010,08,25,13,28,24.00
2010,08,25,13,29,23.90
2010,08,25,13,30,23.80
2010,08,25,13,31,23.70
2010,08,25,13,32,23.70
2010,08,25,13,33,23.70
2010,08,25,13,34,23.70
2010,08,25,13,35,23.70
2010,08,25,13,36,23.70
2010,08,25,13,37,23.70
2010,08,25,13,38,23.80
2010,08,25,13,39,23.90
2010,08,25,13,40,24.00
2010,08,25,13,41,24.10
2010,08,25,13,42,24.10
2010,08,25,13,43,24.10
2010,08,25,13,44,24.00
2010,08,25,13,45,23.90
2010,08,25,13,46,23.80
2010,08,25,13,47,23.80
2010,08,25,13,48,23.80
2010,08,25,13,49,23.70
2010,08,25,13,50,23.80
2010,08,25,13,51,23.80
2010,08,25,13,52,23.80
2010,08,25,13,53,23.80
2010,08,25,13,54,23.80
2010,08,25,13,55,23.90
2010,08,25,13,56,23.90
2010,08,25,13,57,23.80
2010,08,25,13,58,23.80
2010,08,25,13,59,23.80
2010,08,25,14,00,23.80
2010,08,25,14,01,23.80
2010,08,25,14,02,23.80
2010,08,25,14,03,23.80
2010,08,25,14,04,23.80
2010,08,25,14,05,23.80
2010,08,25,14,06,23.80
2010,08,25,14,07,23.80
2010,08,25,14,08,23.80
2010,08,25,14,09,23.80
2010,08,25,14,10,23.80
2010,08,25,14,11,23.80
2010,08,25,14,12,23.90
2010,08,25,14,13,24.00
2010,08,25,14,14,24.10
2010,08,25,14,15,24.20
2010,08,25,14,16,24.20
2010,08,25,14,17,24.30
2010,08,25,14,18,24.30
2010,08,25,14,19,24.40
2010,08,25,14,20,24.60
2010,08,25,14,21,24.70
2010,08,25,14,22,24.70
2010,08,25,14,23,24.70
2010,08,25,14,24,24.70
2010,08,25,14,25,24.70
2010,08,25,14,26,24.70
2010,08,25,14,27,24.70
2010,08,25,14,28,24.80
2010,08,25,14,29,24.90
2010,08,25,14,30,24.90
2010,08,25,14,31,24.90
2010,08,25,14,32,24.90
2010,08,25,14,33,24.90
2010,08,25,14,34,24.90
2010,08,25,14,35,25.00
2010,08,25,14,36,25.10
2010,08,25,14,37,25.10
2010,08,25,14,38,25.20
2010,08,25,14,39,25.30
2010,08,25,14,40,25.30
2010,08,25,14,41,25.20
2010,08,25,14,42,25.20
2010,08,25,14,43,25.20
2010,08,25,14,44,25.20
2010,08,25,14,45,25.20
2010,08,25,14,46,25.30
2010,08,25,14,47,25.30
2010,08,25,14,48,25.30
2010,08,25,14,49,25.40
2010,08,25,14,50,25.40
2010,08,25,14,51,25.40
2010,08,25,14,52,25.40
2010,08,25,14,53,25.40
2010,08,25,14,54,25.40
2010,08,25,14,55,25.40
2010,08,25,14,56,25.40
2010,08,25,14,57,25.50
2010,08,25,14,58,25.60
2010,08,25,14,59,25.60
2010,08,25,15,00,25.70
2010,08,25,15,01,25.70
2010,08,25,15,02,25.80
2010,08,25,15,03,25.80
2010,08,25,15,04,25.90
2010,08,25,15,05,25.90
2010,08,25,15,06,25.90
2010,08,25,15,07,25.90
2010,08,25,15,08,25.80
2010,08,25,15,09,25.80
2010,08,25,15,10,25.70
2010,08,25,15,11,25.80
2010,08,25,15,12,25.80
2010,08,25,15,13,25.90
2010,08,25,15,14,26.00
2010,08,25,15,15,26.10
2010,08,25,15,16,26.20
2010,08,25,15,17,26.30
2010,08,25,15,18,26.30
2010,08,25,15,19,26.30
2010,08,25,15,20,26.30
2010,08,25,15,21,26.20
2010,08,25,15,22,26.20
2010,08,25,15,23,26.30
2010,08,25,15,24,26.40
2010,08,25,15,25,26.50
2010,08,25,15,26,26.60
2010,08,25,15,27,26.60
2010,08,25,15,28,26.60
2010,08,25,15,29,26.70
2010,08,25,15,30,26.70
2010,08,25,15,31,26.70
2010,08,25,15,32,26.70
2010,08,25,15,33,26.80
2010,08,25,15,34,26.80
2010,08,25,15,35,26.80
2010,08,25,15,36,26.80
2010,08,25,15,37,26.80
2010,08,25,15,38,26.80
2010,08,25,15,39,26.90
2010,08,25,15,40,27.00
2010,08,25,15,41,27.10
2010,08,25,15,42,27.20
2010,08,25,15,43,27.20
2010,08,25,15,44,27.10
2010,08,25,15,45,27.10
2010,08,25,15,46,27.10
2010,08,25,15,47,27.00
2010,08,25,15,48,27.00
2010,08,25,15,49,27.00
2010,08,25,15,50,27.10
2010,08,25,15,51,27.10
2010,08,25,15,52,27.10
2010,08,25,15,53,27.10
2010,08,25,15,54,27.10
2010,08,25,15,55,27.10
2010,08,25,15,56,27.10
2010,08,25,15,57,27.10
2010,08,25,15,58,27.20
2010,08,25,15,59,27.20
2010,08,25,16,00,27.20
2010,08,25,16,01,27.20
2010,08,25,16,02,27.30
2010,08,25,16,03,27.30
2010,08,25,16,04,27.30
2010,08,25,16,05,27.40
2010,08,25,16,06,27.40
2010,08,25,16,07,27.40
2010,08,25,16,08,27.40
2010,08,25,16,09,27.50
2010,08,25,16,10,27.50
2010,08,25,16,11,27.60
2010,08,25,16,12,27.50
2010,08,25,16,13,27.50
2010,08,25,16,14,27.40
2010,08,25,16,15,27.40
2010,08,25,16,16,27.50
2010,08,25,16,17,27.50
2010,08,25,16,18,27.50
2010,08,25,16,19,27.60
2010,08,25,16,20,27.60
2010,08,25,16,21,27.70
2010,08,25,16,22,27.70
2010,08,25,16,23,27.60
2010,08,25,16,24,27.60
2010,08,25,16,25,27.60
2010,08,25,16,26,27.60
2010,08,25,16,27,27.70
2010,08,25,16,28,27.70
2010,08,25,16,29,27.70
2010,08,25,16,30,27.70
2010,08,25,16,31,27.70
2010,08,25,16,32,27.80
2010,08,25,16,33,27.80
2010,08,25,16,34,27.80
2010,08,25,16,35,27.80
2010,08,25,16,36,27.80
2010,08,25,16,37,27.80
2010,08,25,16,38,27.80
2010,08,25,16,39,27.80
2010,08,25,16,40,27.80
2010,08,25,16,41,27.90
2010,08,25,16,42,27.90
2010,08,25,16,43,27.80
2010,08,25,16,44,27.70
2010,08,25,16,45,27.70
2010,08,25,16,46,27.60
2010,08,25,16,47,27.60
2010,08,25,16,48,27.60
2010,08,25,16,49,27.50
2010,08,25,16,50,27.50
2010,08,25,16,51,27.50
2010,08,25,16,52,27.60
2010,08,25,16,53,27.60
2010,08,25,16,54,27.60
2010,08,25,16,55,27.50
2010,08,25,16,56,27.50
2010,08,25,16,57,27.60
2010,08,25,16,58,27.60
2010,08,25,16,59,27.70
2010,08,25,17,00,27.70
2010,08,25,17,01,27.70
2010,08,25,17,02,27.70
2010,08,25,17,03,27.70
2010,08,25,17,04,27.60
2010,08,25,17,05,27.60
2010,08,25,17,06,27.50
2010,08,25,17,07,27.50
2010,08,25,17,08,27.50
2010,08,25,17,09,27.50
2010,08,25,17,10,27.50
2010,08,25,17,11,27.60
2010,08,25,17,12,27.60
2010,08,25,17,13,27.60
2010,08,25,17,14,27.60
2010,08,25,17,15,27.60
2010,08,25,17,16,27.50
2010,08,25,17,17,27.50
2010,08,25,17,18,27.40
2010,08,25,17,19,27.40